User: anonymous   Login
Location: Unspecified
(0.0000°N, 0.0000°E)
Time: 12:46:45
(UTC+01:00)
Language:

Cosmos 2219 Rocket - Orbit

View from above orbital plane
View from above orbital plane
View from above satellite
View from above satellite

Ground track
Ground track

The orbit data is extracted from the following two-line orbital elements,

1 22220U 92076B   18055.87478442  .00000196  00000-0  12265-3 0  9990
2 22220  70.9975 247.3474 0014980 250.6373 204.7927 14.16426266306554
Epoch (UTC): 24 February 2018 20:59:41
Eccentricity: 0.0014980
inclination: 70.9975°
perigee height: 826 km
apogee height: 848 km
right ascension of ascending node: 247.3474°
argument of perigee: 250.6373°
revolutions per day: 14.16426266
mean anomaly at epoch: 204.7927°
orbit number at epoch: 30655

The dashed part of the orbit path shows where the satellite is in the earth's shadow,  

DLR